Vertical_Velocity
1 1 1 1 0 -0 -1 -1 -1 -1 -1 -1 -1 -2 -2 -2 -3 -3 -3 -2 -1 -1 -1 -1 -0 -0 -0 -0 -0 -0 -0 -1 -1 -1 -0 -0 -0 -0 -0 -0 -0 -0 -0 -1 -1 -1 -1 -1 -1 -0 -0 -0 0 -0 -0 -0 -0 -0 -1 -1 -0 -0 0 0 0 0 0 -0 -0
1 1 1 1 1 0 -0 -1 -1 -1 -1 -1 -1 -1 -2 -3 -3 -3 -2 -2 -1 -1 -1 -1 -1 -0 -0 -0 -0 -0 -0 -0 -0 -0 -0 -0 -0 -0 -0 -1 -1 -1 -1 -1 -1 -1 -0 -0 -0 -0 -0 -0 -0 -0 -1 -1 -0 -1 -1 -1 -1 -0 -0 -0 -0 0 1 0 -0
1 1 1 1 1 -0 -1 -1 -1 -1 -1 -1 -1 -2 -2 -3 -2 -2 -2 -1 -1 -1 -1 -1 -1 -0 -0 -0 -0 -0 -0 0 -0 -0 -0 -0 -0 -0 -0 -0 -1 -1 -1 -1 -1 -1 -1 -0 -0 -0 -0 -0 -1 -1 -1 -1 -1 -1 -1 -1 -1 -0 -0 -1 -0 0 1 1 0
0 -0 -0 -0 -0 -1 -1 -1 -1 -1 -1 -1 -2 -2 -2 -2 -2 -1 -1 -1 -1 -1 -1 -1 -1 -1 -0 -0 -0 -0 -0 -0 -0 -0 -0 -1 -0 -0 -0 -1 -1 -1 -1 -1 -1 -1 -1 -1 -1 -1 -1 -0 -1 -1 -1 -0 -0 -1 -1 -1 -0 -0 -0 -0 -0 0 1 0 0
-1 -1 -1 -1 -1 -1 -1 -1 -1 -1 -2 -2 -2 -2 -2 -1 -1 -1 -1 -1 -1 -1 -1 -1 -0 -0 -0 -0 -0 -0 -0 -0 -0 -0 -0 -1 -1 -1 -0 -0 -1 -1 -1 -1 -1 -1 -1 -1 -1 -1 -1 -1 -0 -0 -0 -0 -0 -0 -0 -1 -0 1 1 1 0 0 0 -0 -0
-0 -0 -0 -0 -0 0 0 -0 -1 -1 -2 -2 -1 -1 -1 -1 -1 -1 -1 -1 -1 -1 -1 -1 -0 -0 -0 -1 -1 -1 -1 -0 -0 -0 -0 -0 -1 -1 -1 -1 -1 -1 -1 -1 -1 -1 -1 -1 -1 -1 -1 -0 -0 -0 -0 -0 0 0 0 0 0 1 1 1 1 0 -0 -0 -1
1 1 1 0 1 1 1 0 -0 -1 -1 -2 -1 -0 -0 -0 -0 -0 -1 -1 -1 -1 -1 -1 -0 -0 -0 -1 -1 -1 -1 -1 -0 -0 -0 -0 -0 -1 -1 -1 -1 -1 -1 -1 -1 -1 -1 -1 -1 -1 -1 -1 -1 -1 -0 1 1 1 1 1 1 1 1 1 1 0 -0 -0 -0
2 1 1 1 1 1 1 1 -0 -1 -1 -1 -0 0 1 1 0 -0 -1 -1 -1 -1 -1 -0 0 0 -0 -0 -1 -1 -1 -0 -0 -0 -0 -0 -1 -1 -1 -1 -1 -1 -1 -1 -1 -1 -1 -1 -0 -0 -1 -0 -0 -0 0 1 2 1 1 1 0 0 -0 -0 -0 0 -0 -0 -0
2 1 0 1 -0 -1 -1 -0 -0 -1 -1 -1 -0 1 1 1 1 -0 -1 -1 -1 -1 -1 -0 0 0 0 -0 -1 -1 -1 -0 -0 -0 -0 -0 -0 -1 -1 -1 -1 -1 -1 -1 -1 -1 -1 -0 -0 -0 -0 0 1 1 1 1 1 1 0 -0 -0 -0 -0 -0 -0 -0 -0 -0 -0
2 1 0 -0 -1 -2 -3 -2 -2 -2 -1 -1 -0 0 1 1 0 -0 -0 -1 -1 -1 -1 -0 0 0 0 -0 -0 -0 -0 -0 -0 -0 -0 -0 -0 -1 -1 -1 -1 -2 -2 -2 -1 -1 -0 -0 0 0 1 1 1 1 0 0 -0 -0 -1 -1 -0 -0 -0 -0 -0 -0 -0 -0 0
1 -0 -0 -1 -2 -3 -4 -3 -3 -3 -3 -2 -1 -0 0 1 0 -0 -1 -1 -1 -1 -0 0 1 0 0 -0 -0 -0 -0 -0 -0 -0 -0 -0 -0 -0 -1 -1 -1 -1 -1 -1 -1 -0 -0 -0 0 0 0 0 0 -0 -1 -1 -1 -1 -1 -1 -0 0 0 -0 -0 -0 -1 -0 -0
-1 -1 -2 -2 -2 -3 -3 -4 -4 -4 -4 -3 -2 -1 -0 0 -0 -1 -1 -1 -1 -1 -0 -0 0 1 0 -0 -0 -0 -0 0 0 0 0 -0 -0 -0 -1 -1 -1 -1 -1 -1 -0 -0 -0 -0 -0 -1 -1 -1 -1 -1 -1 -1 -1 -1 -1 -1 -0 -0 -0 -0 -0 -0 -0 -1 -1
-1 -2 -2 -2 -2 -2 -3 -3 -4 -4 -4 -4 -2 -1 -0 -0 -0 -1 -1 -1 -1 -1 -1 -0 0 0 0 0 -0 -0 -0 -0 0 0 0 0 -0 -0 -1 -1 -1 -1 -1 -0 -0 -0 -0 -1 -1 -1 -1 -2 -2 -2 -1 -1 -1 -1 -1 -0 0 0 -0 -0 -1 -1 -1 -1 -1
-1 -1 -1 -1 -1 -2 -2 -3 -4 -4 -4 -3 -2 -1 -0 -0 -1 -1 -1 -1 -1 -1 -1 -1 -0 -0 0 1 0 0 -0 -0 -0 -0 -0 -0 -0 -0 -0 -1 -1 -0 -0 -0 -0 -0 -0 -1 -1 -1 -1 -2 -1 -1 -1 -1 -1 -1 -0 0 0 0 -0 -0 -1 -1 -1 -1 -1
-0 -0 -1 -1 -1 -1 -2 -2 -4 -4 -4 -3 -2 -1 -0 -0 -1 -1 -1 -1 -1 -1 -0 -0 -0 -0 0 1 1 1 1 0 0 -0 -0 -0 -0 -1 -1 -1 -0 -0 -0 -0 -0 -1 -1 -1 -1 -1 -1 -1 -1 -1 -1 -1 -1 -0 -0 0 1 0 -0 -0 -1 -1 -1 -1 -1
1 0 -0 -1 -1 -2 -2 -2 -4 -4 -4 -3 -2 -1 -1 -1 -1 -2 -2 -2 -1 -1 -0 -0 -0 -0 0 0 1 1 1 1 0 0 -0 -0 -1 -1 -1 -1 -1 -0 -0 -0 -1 -1 -1 -1 -1 -1 -1 -1 -1 -1 -1 -1 -1 -0 0 1 1 0 -0 -1 -1 -1 -1 -1 -1
1 0 -0 -1 -1 -2 -2 -2 -4 -4 -4 -3 -2 -1 -1 -1 -2 -2 -2 -2 -1 -1 -0 -0 0 1 1 1 1 1 1 1 0 0 -0 -0 -1 -1 -1 -1 -1 -1 -1 -0 -1 -1 -1 -1 -1 -0 -0 -0 -1 -1 -1 -1 -0 0 0 1 0 -0 -0 -1 -1 -1 -1 -1 -1
0 -0 -0 -0 -1 -2 -2 -3 -3 -4 -4 -3 -2 -1 -1 -1 -2 -2 -2 -2 -1 -1 -0 -0 1 1 1 1 1 1 1 1 0 0 -0 -0 -1 -1 -1 -1 -1 -1 -0 -0 -0 -0 -0 -0 -0 -0 -0 -0 -0 -1 -1 -0 -0 0 0 0 0 -0 -1 -1 -1 -1 -1 -1 -0
0 0 0 0 -1 -2 -3 -3 -3 -3 -2 -2 -2 -2 -1 -1 -1 -2 -2 -2 -1 -0 0 0 1 1 1 1 1 1 1 1 1 0 -0 -0 -1 -1 -1 -1 -1 -0 -0 -0 -0 -0 -0 -0 -0 -0 -0 -0 -0 -0 -0 -0 -0 -0 0 0 -0 -1 -1 -1 -1 -1 -1 -0 -0
1 1 2 2 2 -0 -2 -3 -2 -2 -1 -2 -2 -2 -2 -1 -1 -2 -2 -2 -2 -1 0 1 1 1 1 1 1 1 0 0 1 1 -0 -1 -1 -1 -1 -1 -0 -0 -0 -0 -0 -0 -0 -0 -0 -0 -0 -0 -0 -0 -0 -0 -0 -0 -0 -0 -1 -1 -1 -1 -1 -1 -0 -0 0
1 2 3 4 4 3 1 -0 0 0 -0 -2 -2 -2 -2 -1 -1 -2 -2 -2 -1 -0 0 1 1 1 1 1 1 0 0 0 1 0 -0 -1 -1 -1 -1 -1 -0 -0 -0 -0 -0 -0 -0 -0 -0 -0 -0 0 -0 -0 -0 -0 -0 -0 -1 -1 -1 -1 -1 -1 -1 -1 -0 -0 0
2 2 3 4 4 4 4 4 3 2 0 -1 -2 -2 -2 -1 -2 -2 -2 -2 -1 -0 1 1 1 1 1 1 1 0 0 0 0 -0 -1 -1 -1 -1 -1 -0 -0 -0 -0 -0 -0 -0 -0 -0 -0 -0 -0 -0 0 -0 -0 -0 -1 -1 -1 -1 -1 -1 -1 -1 -1 -0 -0 -0 -0
3 3 3 3 4 4 5 5 4 2 1 -1 -2 -2 -2 -1 -2 -2 -2 -2 -1 -0 0 1 1 1 1 1 1 1 0 0 -0 -1 -1 -1 -1 -1 -0 -0 0 -0 -0 -0 -0 -0 -0 -0 -0 -0 -0 -0 -0 -0 -0 -0 -1 -1 -1 -2 -1 -1 -1 -1 -1 -1 -0 -0 -0
3 3 2 2 3 4 4 5 4 2 1 -1 -2 -2 -2 -1 -2 -2 -2 -2 -1 -0 0 0 0 0 0 0 1 1 1 1 -0 -1 -1 -2 -1 -1 -0 0 0 -0 -0 -0 -0 -0 -0 -0 -0 -0 -0 0 -0 -0 -0 -1 -1 -1 -1 -1 -2 -2 -1 -1 -1 -1 -1 -1 -0
2 2 2 2 3 4 4 4 3 2 1 -0 -1 -2 -2 -1 -2 -2 -2 -2 -1 -0 0 -0 -0 -0 0 0 0 1 1 1 -0 -1 -1 -1 -1 -0 -0 0 0 -0 -0 -0 -0 -0 -0 0 0 0 0 0 -0 -0 -0 -1 -1 -1 -1 -1 -2 -2 -2 -1 -1 -1 -1 -1 -1
1 1 1 1 2 3 4 4 3 2 1 -0 -1 -2 -2 -2 -2 -2 -2 -1 -1 -0 -0 -0 -0 -0 0 1 1 1 1 0 -0 -1 -1 -1 -0 -0 0 -0 -0 -0 -0 -0 -0 -0 -0 0 0 0 0 0 -0 -0 -0 -1 -1 -1 -1 -1 -2 -2 -2 -2 -1 -1 -1 -1 -1
0 1 1 1 2 3 3 3 2 2 1 -0 -1 -2 -2 -2 -1 -1 -1 -1 -0 -0 -0 -0 -1 -0 0 1 1 1 1 0 -0 -0 -0 -0 0 0 0 0 -0 -0 -0 -0 -0 -0 -0 0 0 0 0 0 0 -0 -0 -1 -1 -1 -1 -2 -2 -2 -2 -2 -2 -1 -1 -1 -1
1 1 1 2 3 3 2 2 2 1 0 -0 -1 -2 -2 -2 -2 -1 -1 -0 0 0 -0 -1 -1 -0 0 1 1 1 0 0 -0 -0 -0 0 0 1 0 0 -0 -0 -0 -0 -0 -0 -0 0 0 0 0 0 -0 -0 -0 -1 -1 -1 -1 -2 -2 -2 -2 -1 -1 -2 -2 -2 -2
1 1 2 2 2 2 2 2 2 1 0 -0 -1 -2 -2 -2 -2 -1 -1 0 1 0 -0 -1 -0 -0 0 0 0 0 0 -0 -0 -0 0 0 1 1 1 0 -0 -0 -0 -0 -0 -0 -0 0 0 0 0 0 -0 -0 -0 -0 -1 -1 -1 -1 -2 -2 -2 -2 -1 -2 -2 -2 -2
2 2 2 2 2 2 2 2 1 1 0 -0 -1 -2 -2 -2 -2 -1 -1 0 1 0 0 -0 -0 0 0 -0 -0 -0 -0 -0 -0 -0 0 1 1 1 0 -0 -0 -0 -0 -0 -0 -0 -0 -0 -0 -0 -0 -0 -0 -0 -0 -1 -1 -1 -1 -1 -1 -1 -1 -1 -2 -2 -2 -2 -2
3 3 2 2 2 2 2 1 1 1 0 -1 -1 -2 -2 -2 -2 -1 -1 0 1 1 0 0 0 0 -0 -0 -0 -0 -1 -1 -0 0 1 1 1 1 0 -0 -0 -0 -0 -0 -0 -0 -0 -0 -0 -0 -0 -0 -0 -0 -0 -1 -1 -1 -1 -1 -1 -1 -1 -1 -2 -2 -2 -2 -3
3 3 3 2 2 2 1 1 1 1 -0 -1 -1 -2 -2 -2 -2 -1 -1 0 1 1 1 1 1 0 -0 -0 -1 -1 -1 -1 -0 1 1 1 1 1 0 -0 -1 -1 -1 -0 -0 -0 -0 -0 -0 -0 -0 -0 -0 -0 -0 -0 -1 -1 -1 -1 -1 -1 -1 -1 -1 -2 -2 -2 -3
3 3 2 2 2 2 1 1 1 0 -0 -1 -1 -2 -2 -2 -2 -1 -1 -0 1 1 1 1 1 0 -0 -1 -1 -1 -1 -1 0 1 1 1 1 1 0 -0 -0 -1 -1 -0 -0 -0 -0 -0 -0 -0 -0 -0 -0 -0 -0 -0 -0 -1 -1 -0 -0 -0 -1 -1 -1 -2 -2 -2 -2
2 2 2 2 2 2 1 1 1 -0 -0 -1 -1 -2 -2 -2 -1 -1 -1 0 1 2 2 1 1 0 -0 -1 -1 -1 -1 -0 0 1 1 1 1 1 0 -0 -1 -1 -1 -0 -0 -0 -0 -0 -0 -0 -0 -0 -0 -0 -0 -0 -0 -0 -0 -0 -0 -0 -0 -1 -1 -2 -2 -2 -2
2 2 2 2 2 2 1 1 0 -0 -1 -1 -1 -1 -1 -1 -1 -1 -0 1 2 2 2 1 1 -0 -1 -1 -2 -1 -1 -0 1 1 1 1 1 1 0 -0 -1 -1 -1 -0 -0 -0 -0 -0 -0 -0 -0 -0 -0 -0 -0 -0 -0 -0 -0 -0 0 -0 -0 -0 -1 -1 -2 -2 -2
1 2 2 2 2 2 1 0 -0 -1 -1 -1 -1 -1 -1 -1 -1 -0 0 1 2 2 1 1 1 -0 -1 -2 -2 -1 -1 0 1 1 1 1 1 1 0 -0 -1 -1 -1 -0 -0 -0 -0 -0 -0 -0 -0 -0 -0 -0 -0 -0 -0 -0 -0 0 0 -0 -0 -0 -0 -1 -1 -2 -2
1 1 2 2 2 1 0 -0 -0 -0 -0 -0 -1 -1 -1 -1 -1 -0 1 2 2 2 1 1 0 -0 -1 -2 -2 -1 -0 0 1 2 2 1 1 1 0 -0 -1 -1 -1 -0 -0 -0 -0 -0 -0 -0 -0 -0 -0 -0 -0 -0 -0 -0 -0 -0 0 -0 -0 -0 -0 -0 -1 -2 -2
1 1 1 2 1 0 -0 -0 -0 -0 -0 -0 -0 -1 -1 -0 0 1 1 2 2 2 1 1 -0 -1 -1 -2 -1 -1 -0 1 1 1 1 1 1 0 -0 -0 -1 -1 -1 -1 -0 -0 -0 -0 -0 -0 -0 -0 -0 -0 -0 -0 -0 -0 -0 -0 -0 -0 -0 -0 -0 -0 -0 -1 -2
0 1 1 1 1 -0 -0 -0 0 0 -0 -0 -0 -0 -0 -0 1 2 2 2 2 2 1 1 -0 -1 -1 -1 -1 -1 -0 1 1 1 1 1 1 0 -0 -0 -1 -1 -1 -1 -1 -1 -1 -1 -0 -0 -0 -0 -0 -0 -0 -0 -0 -0 -0 -0 -0 -0 -0 -0 -1 -0 -0 -0 -1
-0 0 1 1 0 -0 0 1 1 0 0 -0 -0 -0 -0 0 2 2 2 2 2 1 1 1 -0 -1 -1 -1 -1 -0 -0 1 1 1 1 1 1 0 -0 -1 -1 -1 -1 -1 -1 -1 -1 -1 -1 -0 -0 -0 -0 -0 -0 -0 -0 -0 -1 -1 -1 -1 -1 -0 -0 -1 -1 -0 0
-0 -0 0 0 0 1 1 1 1 0 -0 0 0 0 0 1 2 2 2 2 2 1 1 0 -0 -1 -1 -1 -1 -0 -0 0 1 1 1 1 1 0 -0 -1 -1 -1 -1 -1 -1 -1 -0 -1 -1 -1 -1 -1 -1 -1 -1 -1 -0 -0 -1 -1 -1 -1 -1 -1 -1 -1 -1 -1 0
Height
5810 5810 5810 5810 5810 5810 5810 5810 5809 5809 5809 5808 5808 5807 5807 5806 5805 5804 5804 5803 5802 5801 5800 5799 5797 5796 5795 5794 5793 5792 5791 5790 5789 5788 5787 5786 5785 5784 5783 5782 5780 5779 5778 5777 5775 5775 5774 5772 5770 5769 5767 5766 5764 5763 5761 5759 5758 5756 5754 5753 5751 5750 5749 5747 5745 5744 5742 5740 5739
5808 5808 5808 5809 5809 5809 5808 5808 5808 5807 5807 5806 5806 5805 5805 5804 5804 5803 5802 5801 5800 5799 5798 5797 5795 5794 5793 5792 5791 5790 5789 5788 5787 5786 5785 5784 5783 5782 5781 5780 5779 5777 5776 5775 5774 5773 5771 5770 5768 5767 5765 5764 5762 5761 5759 5757 5756 5754 5753 5751 5749 5748 5747 5745 5744 5742 5740 5738 5736
5806 5806 5807 5807 5807 5807 5807 5806 5806 5805 5805 5805 5804 5804 5803 5803 5802 5801 5800 5799 5798 5797 5796 5795 5794 5793 5792 5790 5789 5789 5788 5787 5786 5785 5784 5783 5782 5780 5779 5778 5777 5776 5775 5774 5772 5771 5769 5768 5767 5765 5764 5762 5760 5759 5757 5755 5754 5752 5751 5749 5748 5746 5744 5743 5741 5740 5738 5736 5734
5804 5804 5804 5805 5805 5805 5805 5804 5804 5804 5804 5803 5803 5802 5801 5801 5800 5799 5799 5798 5797 5795 5794 5793 5792 5791 5790 5789 5788 5787 5786 5785 5784 5783 5782 5781 5780 5779 5778 5776 5775 5774 5773 5771 5770 5769 5768 5766 5765 5763 5762 5760 5759 5757 5755 5754 5752 5750 5749 5747 5746 5744 5743 5741 5739 5738 5736 5734 5732
5802 5803 5803 5803 5803 5803 5803 5803 5802 5802 5801 5801 5801 5800 5799 5799 5798 5798 5797 5796 5795 5794 5793 5791 5790 5789 5788 5787 5786 5785 5784 5784 5782 5781 5780 5779 5778 5777 5776 5775 5774 5772 5771 5770 5769 5767 5766 5764 5763 5761 5760 5758 5757 5755 5754 5752 5750 5749 5747 5746 5744 5743 5741 5739 5738 5736 5734 5732 5730
5800 5800 5801 5801 5801 5801 5801 5800 5800 5800 5799 5799 5799 5798 5798 5797 5796 5796 5795 5794 5793 5792 5791 5790 5789 5788 5787 5785 5784 5784 5783 5782 5781 5780 5779 5778 5776 5775 5774 5773 5772 5771 5769 5768 5767 5765 5764 5763 5761 5759 5758 5757 5755 5753 5752 5750 5749 5747 5745 5744 5742 5741 5739 5737 5736 5734 5732 5729 5727
5799 5799 5799 5799 5799 5799 5799 5799 5798 5798 5798 5797 5797 5797 5796 5795 5795 5794 5793 5792 5791 5790 5789 5788 5787 5786 5785 5784 5783 5782 5781 5780 5779 5778 5777 5776 5775 5774 5773 5771 5770 5769 5768 5766 5765 5764 5762 5761 5759 5758 5756 5755 5753 5752 5750 5749 5747 5745 5744 5742 5740 5739 5737 5735 5734 5732 5729 5727 5725
5796 5796 5796 5797 5797 5797 5797 5796 5796 5796 5796 5795 5795 5795 5794 5794 5793 5792 5791 5790 5789 5788 5787 5786 5785 5784 5783 5782 5781 5780 5779 5779 5777 5776 5775 5774 5773 5772 5771 5769 5769 5767 5766 5765 5763 5762 5760 5759 5758 5756 5755 5753 5751 5750 5749 5747 5745 5744 5742 5740 5739 5737 5735 5734 5731 5729 5728 5725 5724
5794 5794 5794 5794 5794 5794 5794 5794 5794 5794 5794 5794 5793 5793 5792 5792 5791 5790 5789 5789 5788 5787 5786 5785 5784 5783 5782 5781 5779 5779 5778 5777 5775 5774 5774 5772 5771 5770 5769 5768 5767 5765 5764 5763 5762 5760 5759 5757 5756 5754 5753 5751 5750 5748 5747 5745 5744 5742 5740 5739 5737 5735 5733 5732 5729 5728 5725 5724 5722
5792 5792 5792 5792 5791 5791 5791 5791 5792 5792 5792 5791 5791 5791 5790 5790 5789 5789 5788 5787 5786 5785 5784 5783 5782 5781 5780 5779 5778 5777 5776 5775 5774 5773 5772 5771 5770 5769 5768 5766 5765 5764 5763 5761 5760 5759 5757 5756 5754 5753 5751 5750 5748 5747 5745 5743 5741 5740 5738 5736 5735 5733 5731 5730 5728 5726 5724 5722 5720
5790 5789 5789 5789 5789 5789 5789 5789 5789 5789 5789 5789 5789 5789 5788 5788 5787 5787 5786 5785 5784 5783 5782 5781 5780 5779 5778 5777 5776 5775 5774 5773 5772 5771 5770 5769 5768 5767 5766 5764 5763 5762 5761 5759 5758 5757 5755 5754 5753 5751 5749 5748 5746 5744 5743 5741 5739 5738 5736 5735 5733 5732 5730 5728 5726 5724 5722 5720 5718
5787 5787 5787 5787 5786 5786 5786 5786 5787 5787 5787 5787 5787 5787 5786 5786 5785 5784 5784 5783 5782 5781 5780 5779 5779 5778 5777 5775 5774 5773 5772 5771 5770 5769 5768 5767 5766 5765 5764 5763 5761 5760 5759 5758 5756 5755 5754 5752 5751 5749 5747 5746 5744 5742 5741 5739 5738 5736 5735 5733 5732 5730 5729 5726 5724 5722 5720 5718 5716
5785 5785 5784 5784 5784 5784 5784 5784 5784 5785 5785 5785 5785 5784 5784 5784 5784 5783 5782 5781 5780 5779 5779 5778 5777 5776 5775 5774 5772 5771 5770 5769 5769 5768 5767 5765 5764 5763 5762 5761 5760 5759 5757 5756 5754 5753 5752 5750 5749 5747 5745 5744 5742 5741 5739 5738 5736 5734 5733 5732 5730 5729 5727 5725 5723 5720 5718 5716 5714
5783 5783 5783 5783 5782 5782 5782 5783 5783 5783 5783 5783 5783 5783 5782 5782 5781 5781 5780 5779 5778 5778 5777 5776 5775 5774 5773 5772 5770 5769 5768 5767 5767 5766 5765 5764 5763 5762 5760 5759 5758 5757 5755 5754 5753 5751 5750 5748 5747 5745 5744 5742 5740 5739 5738 5736 5734 5733 5732 5730 5729 5727 5725 5723 5721 5719 5716 5714 5712
5780 5781 5781 5781 5780 5780 5780 5780 5780 5780 5780 5781 5781 5781 5780 5780 5779 5779 5778 5777 5776 5776 5775 5774 5773 5772 5771 5770 5769 5768 5767 5766 5765 5764 5763 5762 5761 5760 5759 5757 5756 5755 5754 5752 5751 5749 5748 5746 5745 5743 5742 5740 5739 5737 5736 5734 5733 5732 5730 5729 5727 5725 5723 5721 5719 5717 5714 5712 5710
5779 5779 5779 5779 5779 5778 5778 5778 5778 5778 5778 5779 5779 5779 5778 5778 5777 5777 5776 5775 5774 5774 5773 5772 5771 5769 5769 5769 5767 5766 5765 5764 5763 5762 5761 5760 5759 5758 5757 5756 5754 5753 5752 5750 5749 5747 5746 5744 5743 5742 5740 5739 5737 5736 5734 5733 5731 5730 5729 5727 5725 5723 5721 5719 5717 5715 5713 5710 5709
5777 5777 5777 5777 5776 5776 5776 5776 5776 5776 5776 5776 5777 5776 5776 5776 5775 5775 5774 5774 5773 5772 5771 5770 5769 5768 5767 5766 5765 5764 5763 5762 5761 5760 5759 5758 5757 5756 5755 5754 5753 5751 5750 5749 5747 5746 5744 5743 5741 5740 5739 5737 5736 5734 5733 5731 5730 5728 5727 5725 5723 5721 5719 5717 5715 5713 5711 5709 5707
5774 5774 5774 5774 5774 5774 5774 5774 5774 5774 5774 5774 5774 5774 5774 5774 5773 5773 5772 5771 5770 5769 5769 5768 5767 5766 5764 5764 5763 5762 5761 5760 5759 5759 5758 5756 5755 5754 5753 5752 5751 5749 5748 5747 5745 5744 5743 5741 5740 5738 5737 5735 5734 5733 5731 5730 5728 5727 5725 5723 5721 5719 5717 5715 5713 5711 5709 5707 5705
5772 5772 5772 5772 5772 5772 5771 5771 5771 5772 5772 5772 5772 5772 5772 5771 5771 5770 5770 5769 5769 5767 5766 5765 5764 5764 5763 5762 5761 5760 5759 5758 5758 5757 5755 5754 5753 5752 5751 5750 5749 5748 5746 5745 5744 5742 5741 5739 5738 5737 5735 5734 5732 5731 5729 5728 5726 5725 5723 5721 5719 5717 5715 5713 5711 5709 5707 5705 5703
5770 5770 5771 5770 5770 5769 5769 5769 5769 5770 5770 5770 5770 5770 5769 5769 5769 5768 5768 5767 5766 5765 5764 5763 5762 5761 5760 5760 5759 5758 5757 5757 5756 5754 5754 5752 5751 5750 5749 5748 5747 5746 5744 5743 5742 5740 5739 5738 5736 5735 5734 5732 5731 5729 5728 5726 5724 5723 5721 5719 5718 5715 5714 5711 5709 5707 5705 5704 5701
5769 5769 5769 5769 5768 5768 5767 5768 5768 5768 5768 5768 5768 5767 5767 5767 5766 5766 5765 5765 5764 5763 5762 5761 5760 5759 5758 5758 5757 5756 5755 5754 5754 5752 5751 5750 5749 5748 5747 5746 5745 5744 5743 5741 5740 5739 5737 5736 5735 5733 5732 5730 5729 5728 5726 5724 5723 5721 5719 5717 5716 5714 5712 5710 5708 5706 5704 5702 5700
5767 5767 5767 5767 5766 5766 5766 5766 5766 5766 5765 5765 5765 5765 5765 5764 5764 5764 5763 5763 5762 5761 5760 5759 5758 5757 5756 5755 5755 5754 5753 5752 5751 5750 5749 5749 5748 5746 5745 5744 5743 5742 5741 5739 5738 5737 5736 5734 5733 5732 5730 5729 5727 5726 5724 5723 5721 5719 5717 5715 5714 5712 5710 5708 5706 5704 5702 5700 5698
5764 5764 5764 5764 5764 5764 5764 5764 5764 5764 5763 5763 5763 5763 5763 5762 5762 5761 5761 5760 5760 5759 5758 5757 5756 5755 5754 5753 5753 5752 5751 5750 5749 5749 5748 5747 5746 5745 5744 5743 5742 5740 5739 5738 5736 5735 5734 5733 5731 5730 5729 5727 5725 5724 5722 5720 5719 5717 5715 5714 5712 5710 5708 5706 5704 5702 5700 5698 5696
5762 5762 5762 5762 5762 5762 5762 5762 5762 5761 5761 5760 5760 5760 5760 5760 5760 5759 5759 5758 5758 5757 5755 5754 5754 5753 5752 5751 5751 5750 5749 5748 5747 5746 5746 5745 5744 5743 5742 5741 5740 5739 5737 5736 5735 5734 5732 5731 5729 5728 5727 5725 5724 5722 5720 5719 5717 5715 5714 5712 5710 5708 5706 5704 5703 5701 5699 5696 5694
5759 5759 5759 5759 5760 5760 5760 5760 5759 5759 5758 5758 5758 5758 5758 5758 5757 5757 5756 5756 5755 5754 5753 5752 5752 5751 5750 5749 5749 5748 5747 5746 5745 5744 5744 5743 5742 5741 5740 5739 5738 5737 5735 5734 5733 5732 5730 5729 5728 5726 5725 5723 5722 5720 5719 5717 5715 5714 5712 5710 5708 5706 5704 5703 5701 5699 5697 5695 5693
5757 5757 5757 5757 5758 5758 5758 5757 5757 5756 5756 5755 5756 5756 5756 5755 5755 5755 5754 5754 5753 5752 5751 5750 5749 5749 5748 5747 5746 5745 5745 5744 5743 5743 5742 5741 5740 5739 5738 5737 5736 5735 5734 5733 5731 5730 5729 5728 5726 5724 5723 5721 5720 5718 5717 5715 5713 5712 5710 5708 5706 5704 5703 5701 5699 5697 5695 5693 5691
5754 5754 5754 5755 5755 5755 5755 5755 5754 5754 5753 5753 5753 5753 5753 5753 5753 5753 5752 5751 5750 5749 5749 5748 5747 5747 5746 5745 5744 5744 5743 5742 5741 5741 5740 5739 5739 5738 5737 5735 5734 5733 5732 5731 5729 5728 5727 5726 5724 5723 5721 5719 5718 5716 5715 5713 5711 5710 5708 5706 5704 5703 5701 5699 5697 5695 5693 5691 5689
5751 5752 5752 5752 5753 5753 5752 5752 5752 5751 5751 5751 5751 5751 5751 5751 5750 5750 5750 5749 5748 5747 5746 5746 5745 5744 5744 5743 5742 5741 5741 5740 5739 5739 5738 5737 5737 5736 5735 5734 5733 5731 5730 5729 5728 5727 5725 5724 5723 5721 5719 5718 5716 5714 5713 5711 5710 5708 5706 5704 5703 5701 5699 5697 5695 5694 5691 5689 5687
5748 5749 5749 5749 5750 5750 5750 5749 5749 5749 5749 5748 5749 5749 5749 5748 5748 5748 5747 5746 5745 5745 5744 5744 5743 5742 5742 5741 5740 5739 5739 5738 5738 5737 5736 5735 5735 5734 5733 5732 5731 5729 5729 5727 5726 5725 5723 5722 5721 5719 5718 5716 5714 5713 5711 5710 5708 5706 5704 5703 5701 5699 5697 5695 5694 5692 5689 5688 5685
5745 5746 5746 5747 5747 5747 5747 5747 5746 5746 5746 5746 5746 5746 5746 5746 5745 5745 5744 5744 5743 5742 5742 5741 5741 5740 5739 5739 5738 5738 5737 5736 5735 5735 5734 5734 5733 5732 5731 5730 5729 5728 5727 5725 5724 5723 5722 5720 5719 5717 5716 5714 5713 5711 5709 5708 5706 5705 5703 5701 5699 5697 5695 5694 5692 5690 5688 5686 5684
5743 5743 5744 5744 5744 5744 5744 5744 5744 5744 5743 5743 5744 5744 5744 5744 5743 5743 5742 5741 5741 5740 5739 5739 5739 5738 5737 5737 5736 5735 5735 5734 5734 5733 5733 5732 5731 5730 5729 5728 5727 5726 5725 5724 5722 5721 5720 5718 5717 5716 5714 5713 5711 5709 5708 5706 5705 5703 5701 5699 5698 5696 5694 5692 5690 5688 5686 5684 5682
5740 5740 5741 5741 5741 5741 5741 5741 5741 5741 5741 5741 5741 5741 5741 5741 5741 5740 5739 5739 5738 5738 5737 5737 5737 5736 5735 5735 5734 5734 5733 5732 5732 5731 5731 5730 5729 5729 5728 5726 5725 5724 5723 5722 5721 5719 5718 5717 5715 5714 5713 5711 5709 5708 5706 5705 5703 5701 5700 5698 5696 5694 5692 5690 5688 5686 5684 5682 5680
5737 5737 5738 5738 5738 5738 5738 5738 5738 5738 5738 5739 5739 5739 5739 5739 5738 5738 5737 5736 5736 5735 5735 5735 5734 5734 5734 5733 5732 5732 5731 5730 5730 5729 5729 5728 5727 5727 5726 5725 5724 5723 5721 5720 5719 5718 5716 5715 5714 5712 5711 5709 5708 5706 5705 5703 5702 5700 5698 5696 5694 5693 5690 5689 5686 5684 5682 5680 5678
5734 5734 5735 5735 5735 5735 5735 5735 5735 5736 5736 5736 5736 5736 5736 5736 5736 5735 5734 5734 5734 5733 5733 5733 5732 5732 5731 5731 5730 5730 5729 5729 5728 5728 5727 5726 5725 5725 5724 5723 5722 5721 5720 5718 5717 5716 5714 5713 5712 5710 5709 5708 5706 5704 5703 5702 5700 5698 5697 5695 5693 5691 5689 5687 5685 5683 5681 5679 5676
5731 5731 5732 5732 5732 5732 5733 5733 5733 5733 5733 5734 5734 5734 5734 5734 5733 5733 5732 5732 5731 5731 5730 5730 5730 5729 5729 5729 5728 5728 5727 5727 5726 5726 5725 5724 5724 5723 5722 5721 5720 5719 5718 5717 5715 5714 5713 5711 5710 5709 5708 5706 5704 5703 5702 5700 5699 5697 5695 5693 5691 5689 5687 5685 5683 5681 5679 5677 5675
5728 5729 5729 5729 5729 5729 5730 5730 5730 5731 5731 5731 5731 5731 5731 5731 5731 5730 5729 5729 5729 5729 5728 5728 5728 5728 5727 5727 5726 5726 5725 5725 5724 5724 5723 5723 5722 5721 5720 5719 5718 5717 5716 5715 5714 5712 5711 5710 5709 5707 5706 5704 5703 5701 5700 5699 5697 5695 5694 5692 5690 5688 5686 5684 5682 5680 5678 5675 5673
5725 5725 5725 5726 5726 5727 5727 5728 5728 5728 5729 5729 5729 5729 5729 5729 5728 5728 5727 5727 5726 5726 5726 5726 5726 5725 5725 5725 5724 5724 5724 5723 5723 5722 5721 5720 5720 5719 5718 5717 5716 5715 5714 5713 5712 5710 5709 5708 5707 5705 5704 5703 5701 5700 5699 5697 5695 5694 5692 5690 5689 5687 5684 5683 5680 5678 5676 5674 5671
5722 5722 5723 5723 5724 5724 5724 5725 5725 5726 5726 5726 5727 5727 5726 5726 5726 5725 5725 5724 5724 5724 5724 5724 5724 5723 5723 5723 5723 5722 5722 5721 5720 5720 5719 5719 5718 5717 5716 5715 5714 5714 5712 5711 5710 5709 5707 5706 5705 5704 5702 5701 5699 5698 5697 5695 5694 5692 5690 5689 5687 5685 5683 5681 5679 5677 5674 5672 5670
5719 5719 5720 5720 5721 5721 5722 5723 5723 5724 5724 5724 5724 5724 5724 5723 5723 5723 5722 5722 5722 5722 5722 5722 5722 5721 5721 5721 5720 5720 5719 5719 5719 5718 5717 5717 5716 5715 5714 5714 5713 5711 5710 5709 5708 5707 5706 5704 5703 5702 5701 5699 5698 5697 5695 5694 5692 5691 5689 5687 5685 5684 5681 5679 5678 5675 5673 5671 5669
5716 5717 5717 5718 5719 5719 5720 5720 5721 5721 5721 5721 5721 5721 5721 5721 5720 5720 5720 5720 5720 5720 5720 5720 5719 5719 5719 5719 5719 5718 5718 5717 5717 5716 5715 5715 5714 5713 5713 5712 5711 5709 5709 5707 5706 5705 5704 5703 5702 5700 5699 5698 5696 5695 5694 5692 5690 5689 5687 5685 5684 5682 5680 5678 5676 5674 5672 5670 5667
5713 5714 5715 5715 5716 5717 5718 5718 5719 5719 5719 5719 5719 5718 5718 5718 5718 5718 5718 5718 5718 5718 5718 5718 5717 5717 5717 5717 5717 5716 5716 5715 5714 5714 5714 5713 5712 5711 5711 5710 5709 5708 5707 5705 5704 5703 5702 5701 5700 5699 5697 5696 5694 5693 5692 5690 5689 5687 5685 5684 5682 5680 5678 5676 5674 5673 5671 5669 5666